Location: Newark
(27.9675°N, 86.8869°E)
Time: 02:02:20
(UTC+00:00)

Courier 1B - Visible Passes

Search period start: 23 October 2019 00:00
Search period end: 02 November 2019 00:00
Orbit: 962 x 1209 km, 28.3° (Epoch: 22 October)

Date Brightness Start Highest point End Pass type
(mag) Time Alt. Az. Time Alt. Az. Time Alt. Az.
23 Oct 8.1 11:43:55 10° W 11:51:46 88° S 11:59:39 10° E visible
23 Oct 7.7 13:38:29 10° W 13:46:24 89° S 13:47:22 72° E visible
23 Oct 10.2 15:33:10 10° W 15:34:16 15° W 15:34:16 15° W visible
24 Oct 7.9 12:44:26 10° W 12:52:21 88° N 12:56:57 28° E visible
24 Oct 8.9 14:39:02 10° W 14:43:50 40° W 14:43:50 40° W visible
25 Oct 8.0 11:50:26 10° W 11:58:16 87° N 12:06:11 10° E visible
25 Oct 7.8 13:44:58 10° W 13:52:51 76° SSW 13:53:27 72° SSE visible
25 Oct 10.4 15:39:54 10° W 15:40:20 12° W 15:40:20 12° W visible
26 Oct 7.9 12:50:57 10° W 12:58:50 84° S 13:03:06 31° ESE visible
26 Oct 9.2 14:45:38 10° W 14:49:59 32° WSW 14:49:59 32° WSW visible
27 Oct 8.0 11:56:58 10° W 12:04:47 90° S 12:12:42 10° E visible
27 Oct 8.1 13:51:31 10° W 13:59:12 58° SSW 13:59:41 57° S visible
28 Oct 8.1 12:57:28 10° W 13:05:14 69° SSW 13:09:27 30° ESE visible
28 Oct 9.6 14:52:33 10° W 14:56:22 25° WSW 14:56:22 25° WSW visible
29 Oct 8.1 12:03:30 10° W 12:11:14 78° SSW 12:19:07 10° ESE visible
29 Oct 8.7 13:58:13 10° W 14:05:25 40° SSW 14:06:13 39° SSW visible
30 Oct 8.5 13:04:04 10° W 13:11:32 50° SSW 13:16:09 24° SE visible
30 Oct 10.0 15:00:09 10° WSW 15:03:04 17° SW 15:03:04 17° SW visible
31 Oct 8.4 12:10:03 10° W 12:17:36 60° SSW 12:25:20 10° ESE visible
31 Oct 9.4 14:05:22 10° W 14:11:34 26° SSW 14:13:07 24° SSW visible
01 Nov 9.2 13:10:57 10° W 13:17:44 33° SSW 13:23:15 15° SSE visible
